Location: Blackrock Ranger Station
(36.0936°N, 118.2611°W)
Time: 08:42:35
(UTC-07:00)

AO-7 - Pass Details

Date: 19 February 2026
Orbit: 1440 x 1458 km, 102.0° (Epoch: 15 March)

Event Time Altitude Azimuth Distance (km) Brightness Sun altitude
Rises 04:48:04 0° 34° (NE) 4,559 ? -22.4°
Reaches altitude 10° 04:52:01 10° 52° (NE) 3,578 ? -21.6°
Maximum altitude 04:57:33 19° 94° (E) 2,928 ? -20.5°
Drops below altitude 10° 05:03:01 10° 136° (SE) 3,571 ? -19.4°
Sets 05:06:54 0° 153° (SSE) 4,546 ? -18.6°
